Flag for Switzerland Weather past 2 weeks in Küsnacht, Zurich, Switzerland

Now
65 °F

Mild.


Feels Like: 65 °F
Forecast: 60 / 87 °F
Wind: 1 mph from Northeast

Location: Zurich Town / Ville.

Current Time: Aug 29, 2015 at 5:25:00 AM

Latest Report: Aug 29, 2015 at 4:00 AM


Visibility: N/A

Pressure: 30.16 "Hg

Humidity: 82%

Dew point: 60 °F

Location of KüsnachtLocation

Historic Weather in Küsnacht — Graph

°F

Küsnacht temperature yesterday

Maximum temperature yesterday: 86 °F (at 4:00 PM)
Minimum temperature yesterday: 66 °F (at 7:00 AM)
Average temperature yesterday: 76 °F

Past Weeks' High & Low Weather Summary

 TemperatureHumidityPressure
High86 °F (Aug 28, 4:00 PM)98% (Aug 16, 4:00 AM)30.26 "Hg (Aug 16, 4:00 AM)
Low52 °F (Aug 20, 7:00 AM)34% (Aug 28, 5:00 PM)29.70 "Hg (Aug 24, 2:00 PM)
Average63 °F75%29.99 "Hg
* Reported Aug 14 4:00 AM — Aug 29 4:00 AM, Küsnacht, Weather by CustomWeather, © 2015

Note: Actual official high and low records may vary slightly from our data, if they occured in-between our weather recording intervals... More about our weather records

Advertising

Küsnacht weather history for previous 24 hours

 ConditionsComfort  
Time TempWeatherWind HumidityBarometerVisibility
4:00 AM
Sat, Aug 29
65 °FMild.1 mph82%30.16 "HgN/A
3:00 AM67 °FMild.1 mph78%30.14 "HgN/A
2:00 AM68 °FMild.2 mph74%30.15 "HgN/A
1:00 AM68 °FMild.2 mph73%30.15 "HgN/A
10:00 PM
Fri, Aug 28
72 °FMild.2 mph66%30.10 "HgN/A
9:00 PM74 °FMild.2 mph62%30.08 "HgN/A
8:00 PM77 °FWarm.3 mph55%30.05 "HgN/A
7:00 PM82 °FWarm.3 mph45%30.02 "HgN/A
6:00 PM84 °FPleasantly warm.5 mph36%30.01 "HgN/A
5:00 PM86 °FPleasantly warm.7 mph34%30.00 "HgN/A
4:00 PM86 °FPleasantly warm.6 mph36%30.01 "HgN/A
2:00 PM84 °FPassing clouds.7 mph39%30.01 "HgN/A
1:00 PM82 °FWarm.6 mph42%30.02 "HgN/A
12:00 PM79 °FWarm.5 mph48%30.03 "HgN/A
11:00 AM76 °FMild.3 mph53%30.04 "HgN/A
10:00 AM73 °FMild.3 mph62%30.04 "HgN/A
9:00 AM70 °FMild.1 mph67%30.04 "HgN/A
8:00 AM67 °FMild.1 mph76%30.04 "HgN/A
7:00 AM66 °FMild.1 mph76%30.02 "HgN/A
Weather by CustomWeather, © 2015

See weather overviewHow to use our weather pages